LMJ040 LPPT-LEMG

Flight info

Callsign LMJ040
Flight time N/A
Altitude 31000
Route DUZOP DCT MINTA/N0448F320 DCT OSLEP DCT NAPES DCT ONUBA DCT PIMUR DCT SVL
Aircraft A320/M-SDE3FGHIRWY/LB1

Departure

Time 2026-05-04 23:01
Airport Lisbon Humberto Delgado Airport (LPPT)

Arrival

Time N/A
Airport Málaga-Costa del Sol Airport (LEMG)
Time Latitude Longitude Altitude Speed Heading
2026-05-04 22:07 38.76891 -9.13052 383 ft 0 kts 79°
2026-05-04 22:09 38.76891 -9.13051 382 ft 0 kts 77°
2026-05-04 22:49 38.76888 -9.13071 383 ft 2 kts 77°
2026-05-04 22:49 38.76887 -9.13093 383 ft 2 kts 100°
2026-05-04 22:49 38.76893 -9.13116 383 ft 2 kts 120°
2026-05-04 22:49 38.76903 -9.13133 383 ft 2 kts 137°
2026-05-04 22:50 38.76919 -9.13146 383 ft 2 kts 158°
2026-05-04 22:50 38.76927 -9.13150 383 ft 1 kts 168°
2026-05-04 22:50 38.76932 -9.13151 383 ft 0 kts 167°
2026-05-04 22:53 38.76931 -9.13151 383 ft 0 kts 167°
2026-05-04 22:54 38.76925 -9.13149 383 ft 1 kts 167°
2026-05-04 22:54 38.76909 -9.13144 383 ft 3 kts 167°
2026-05-04 22:54 38.76883 -9.13137 383 ft 4 kts 167°
2026-05-04 22:54 38.76856 -9.13129 383 ft 4 kts 167°
2026-05-04 22:55 38.76820 -9.13123 383 ft 3 kts 184°
2026-05-04 22:55 38.76793 -9.13139 383 ft 6 kts 229°
2026-05-04 22:55 38.76772 -9.13195 383 ft 7 kts 257°
2026-05-04 22:55 38.76760 -9.13265 383 ft 8 kts 257°
2026-05-04 22:56 38.76748 -9.13345 383 ft 10 kts 258°
2026-05-04 22:56 38.76703 -9.13418 383 ft 11 kts 214°
2026-05-04 22:56 38.76652 -9.13501 383 ft 12 kts 255°
2026-05-04 22:56 38.76634 -9.13615 383 ft 13 kts 260°
2026-05-04 22:57 38.76615 -9.13734 383 ft 14 kts 258°
2026-05-04 22:57 38.76594 -9.13864 383 ft 15 kts 259°
2026-05-04 22:57 38.76566 -9.13995 383 ft 15 kts 240°
2026-05-04 22:57 38.76503 -9.14107 383 ft 15 kts 248°
2026-05-04 22:58 38.76511 -9.14228 383 ft 5 kts 294°
2026-05-04 22:58 38.76529 -9.14279 383 ft 6 kts 295°
2026-05-04 22:58 38.76531 -9.14284 383 ft 0 kts 295°
2026-05-04 22:59 38.76532 -9.14285 383 ft 0 kts 295°
2026-05-04 22:59 38.76534 -9.14292 383 ft 1 kts 295°
2026-05-04 22:59 38.76541 -9.14312 383 ft 3 kts 295°
2026-05-04 22:59 38.76553 -9.14343 383 ft 4 kts 295°
2026-05-04 23:00 38.76564 -9.14373 383 ft 5 kts 295°
2026-05-04 23:00 38.76591 -9.14378 383 ft 5 kts 33°
2026-05-04 23:00 38.76650 -9.14365 383 ft 7 kts
2026-05-04 23:00 38.76713 -9.14347 383 ft 15 kts 19°
2026-05-04 23:01 38.77036 -9.14178 383 ft 84 kts 21°
2026-05-04 23:01 38.77764 -9.13786 383 ft 142 kts 22°
2026-05-04 23:01 38.78805 -9.13220 607 ft 169 kts 23°
2026-05-04 23:01 38.79841 -9.12516 1260 ft 170 kts 27°
2026-05-04 23:02 38.80778 -9.11809 1980 ft 166 kts 25°
2026-05-04 23:02 38.81789 -9.11079 2533 ft 172 kts 25°
2026-05-04 23:02 38.82875 -9.10336 2854 ft 187 kts 24°
2026-05-04 23:02 38.84021 -9.09568 3165 ft 203 kts 24°
2026-05-04 23:03 38.85241 -9.08759 3403 ft 223 kts 24°
2026-05-04 23:03 38.86693 -9.07787 3813 ft 240 kts 28°
2026-05-04 23:03 38.87921 -9.06245 4224 ft 264 kts 59°
2026-05-04 23:03 38.88379 -9.03950 4953 ft 274 kts 87°
2026-05-04 23:04 38.87994 -9.01643 5693 ft 281 kts 114°
2026-05-04 23:04 38.87072 -8.99559 6432 ft 285 kts 120°
2026-05-04 23:04 38.85915 -8.97708 7083 ft 291 kts 141°
2026-05-04 23:04 38.84129 -8.96600 7813 ft 292 kts 171°
2026-05-04 23:05 38.82095 -8.96691 8572 ft 289 kts 200°
2026-05-04 23:05 38.80235 -8.97669 9348 ft 289 kts 207°
2026-05-04 23:05 38.78445 -8.98708 10090 ft 292 kts 207°
2026-05-04 23:05 38.76706 -8.99700 10728 ft 298 kts 207°
2026-05-04 23:06 38.73144 -9.01677 11346 ft 328 kts 207°
2026-05-04 23:06 38.70802 -9.02947 11859 ft 340 kts 206°
2026-05-04 23:07 38.66895 -9.05039 13122 ft 344 kts 207°
2026-05-04 23:07 38.64679 -9.06221 13806 ft 346 kts 207°